Location: Mountain Grove
(34.0887°N, 86.6172°W)
Time: 22:03:43
(UTC+00:00)

COBE Rocket - Pass Details

Date: 14 July 2020
Orbit: 679 x 783 km, 97.1° (Epoch: 08 August)

Event Time Altitude Azimuth Distance (km) Brightness Sun altitude
Exits shadow 09:01:51 34° 235° (SW) 1,223 4.5 -18.4°
Maximum altitude 09:02:54 38° 263° (W) 1,135 4.5 -18.2°
Drops below altitude 10° 09:07:30 10° 331° (NNW) 2,247 6.6 -17.5°
Sets 09:09:55 0° 339° (NNW) 3,155 7.5 -17.2°
